This is the latest recevied weather packets stored in our database for station/object KI5GCD-13. If no packets are shown the sender has not sent any weather packets the latest 10 day(s).
| Time | Temp. | Humidity | Pressure | Rain* | Wind** | Luminosity | Snow |
|---|---|---|---|---|---|---|---|
| 1777847387 | 27.22° C | 36% | 1009 hPa | 0 mm | 1.79 m/s, 254° | - | - |
| 1777847087 | 27.22° C | 36% | 1008.7 hPa | 0 mm | 0.89 m/s, 253° | - | - |
| 1777846787 | 27.78° C | 34% | 1008.8 hPa | 0 mm | 0.89 m/s, 222° | - | - |
| 1777846487 | 27.78° C | 34% | 1009 hPa | 0 mm | 1.34 m/s, 343° | - | - |
| 1777846187 | 27.22° C | 33% | 1009.1 hPa | 0 mm | 2.24 m/s, 266° | - | - |
| 1777845887 | 27.22° C | 34% | 1009.2 hPa | 0 mm | 1.79 m/s, 190° | - | - |
| 1777845588 | 27.78° C | 35% | 1009 hPa | 0 mm | 2.24 m/s, 196° | - | - |
| 1777845287 | 27.22° C | 35% | 1009.1 hPa | 0 mm | 1.34 m/s, 244° | - | - |
| 1777844987 | 27.22° C | 37% | 1009.2 hPa | 0 mm | 1.79 m/s, 284° | - | - |
| 1777844687 | 26.67° C | 40% | 1009.3 hPa | 0 mm | 0.89 m/s, 208° | - | - |
| 1777844387 | 26.67° C | 39% | 1009.5 hPa | 0 mm | 1.34 m/s, 239° | - | - |
| 1777844087 | 26.67° C | 39% | 1009.5 hPa | 0 mm | 1.34 m/s, 199° | - | - |
| 1777843787 | 26.67° C | 39% | 1009.5 hPa | 0 mm | 2.24 m/s, 216° | - | - |
| 1777843487 | 26.67° C | 39% | 1009.9 hPa | 0 mm | 0.89 m/s, 280° | - | - |
| 1777843188 | 27.22° C | 39% | 1009.7 hPa | 0 mm | 0.89 m/s, 267° | - | - |
| 1777842887 | 27.22° C | 41% | 1009.8 hPa | 0 mm | 0.89 m/s, 256° | - | - |
| 1777842587 | 27.22° C | 42% | 1009.7 hPa | 0 mm | 0.89 m/s, 250° | - | - |
| 1777842287 | 27.22° C | 38% | 1009.9 hPa | 0 mm | 0 m/s | - | - |
| 1777841987 | 26.67° C | 41% | 1009.9 hPa | 0 mm | 0.89 m/s, 260° | - | - |
| 1777841687 | 26.67° C | 41% | 1010 hPa | 0 mm | 2.68 m/s, 223° | - | - |
| 1777841387 | 26.67° C | 41% | 1010.1 hPa | 0 mm | 0.89 m/s, 285° | - | - |
| 1777841087 | 26.67° C | 40% | 1010.2 hPa | 0 mm | 0.89 m/s, 316° | - | - |
| 1777840787 | 26.67° C | 42% | 1010.4 hPa | 0 mm | 0.89 m/s, 240° | - | - |
| 1777840487 | 26.67° C | 39% | 1010.5 hPa | 0 mm | 1.79 m/s, 260° | - | - |
| 1777840187 | 26.67° C | 44% | 1010.5 hPa | 0 mm | 0.89 m/s, 256° | - | - |
* Rain latest hour (hover to see other rain measurements)
** Current wind speed in m/s (hover to see current wind gust speed)